NOAA 16 DEB, 41307

Orbit data source: Space-Track

NOAA 16 DEB, 41307 is space debris in SSO originally from a launch on Thu, 21 Sep 2000 UTC launched from the Air Force Western Test Range (AFWTR). Debris objects in space refer to the collection of defunct objects orbiting the Earth. Examples of debris include non-operational satellites, rocket bodies, and fragments generated from explosions, collisions, or faulty payload assembly.

Loading next visibility...
Identifier
41307, 2000-055HK
Orbit
SSO
Country
Flag of USUS
Related business
Manufacturer
Unknown
Mission
Spacecraft
Bus & Motor
Unknown
Mass
Unknown
Launch date (UTC)
2000-09-21 (26 years ago)
Launch vehicle
Unknown
Launch site
Air Force Western Test Range (AFWTR)
Object type
Payload
Rocket body
Debris
Shape & HBR
Unknown shape, 0.1 m
Radar Cross Section
Medium (>0.1 m² and <1 m²)

Expand to show TLE details & history
Last TLE update: 22 hours ago

TLE from 22 hours ago
0 NOAA 16 DEB
1 41307U 00055HK  26206.53477084  .00215450  00000-0  76537-2 0  9996
2 41307  98.8843  57.5401 0003044 201.7015 158.4092 15.28072047551394
Epoch: 2026-07-25T12:50Z
TLE epoch observation values (Epoch: 2026-07-25T12:50:04.200Z)
Latitude
0.00003°
Longitude
-78.22307°
Altitude
486.573 km
Speed
7.621 km/s
True Right ascension
03h 50m 09s
True Declination
0° 00' 00"
Sunlit
Object was in daylight at epoch
Visualization orbit readout
Latitude
Unknown
Longitude
Unknown
Altitude
Unknown
Speed
Unknown
Apparent Right ascension
Unknown
Apparent Declination
Unknown
Sunlit
N/A
Visualization observer readout
Local Sidereal Time
23:36:56
Azimuth
Unknown
Elevation
Unknown
Doppler factor
Unknown
Orbital elements
Apogee altitude
480.688 km
Perigee altitude
476.514 km
Semi-major axis
6,856.738 km
Eccentricity
0.0003
Inclination
98.8843°
RAAN
57.5401°
Arg. of periapsis
201.7015°
True anomaly
158.42203°
Mean anomaly
158.4092°
Eccentric anomaly
158.41562°
Mean motion
3.82267 °/min
Orbital period
94.18 mins
BSTAR
0.0076537
Loading maneuver chart data...
Computing Atmospheric mass density...
Loading historical data...
Loading historical data...
Loading historical data...
Loading historical data...
Loading historical data...
Loading historical data...
Loading historical data...

Documentation

Showing up to 5 results
|